Regional Weather Roundup
Issued by NWS Memphis, TN

Home | Current Version | Previous Version | Text Only | Print | Product List | Glossary On
Versions: 1 2 3 4 5 6 7 8 9 10 11 12 13 14 15 16 17 18 19 20 21 22 23 24 25 26 27 28 29 30 31 32 33 34 35 36 37 38 39 40 41 42 43 44 45 46 47 48 49 50
000
ASUS44 KMEG 041310
RWRMEG
MEMPHIS CWA HOURLY WEATHER ROUNDUP
NATIONAL WEATHER SERVICE MEMPHIS TN
700 AM CST WED MAR 04 2015

...WEST TENNESSEE...

CITY           SKY/WX    TMP DP  RH WIND       PRES   REMARKS
MEMPHIS INTL   FOG       55  53  93 NW6       29.88R VSB 1
NWS MEMPHIS      N/A     53 N/A N/A MISG        N/A
JACKSON        LGT RAIN  52  50  93 NE3       29.89R FOG
LEXINGTON      CLOUDY    52  52 100 NE6       29.87S
SAVANNAH       CLOUDY    66  66 100 S14       29.88S
DYERSBURG      CLOUDY    45  34  65 N8        29.94R
UNION CITY     CLOUDY    41  41 100 N12       29.93R
PARIS          CLOUDY    43  43 100 N12       29.92R


...EASTERN ARKANSAS...

CITY           SKY/WX    TMP DP  RH WIND       PRES   REMARKS
JONESBORO      LGT RAIN  44  32  62 NE17G24   29.94R
WEST MEMPHIS   CLOUDY    50  50 100 N7        29.88R
BATESVILLE     CLOUDY    46  46 100 N7        29.95R
NEWPORT        LGT RAIN  44  44 100 N18       29.95R FOG
WALNUT RIDGE   CLOUDY    43  39  87 NE14      29.94S
BLYTHEVILLE    LGT RAIN  43  43 100 N22       29.94R
SEARCY         LGT RAIN  49  48  97 N7        29.94R FOG
STUTTGART      CLOUDY    50  48  93 N5        29.90S
PINE BLUFF     CLOUDY    55  54  96 CALM      29.89R
MONTICELLO     LGT RAIN  65  63  93 SW9       29.89S FOG


...NORTH MISSISSIPPI...

CITY           SKY/WX    TMP DP  RH WIND       PRES   REMARKS
TUPELO         CLOUDY    64  62  93 SW9       29.93S
OXFORD         FOG       64  63  94 SW9       29.92S VSB 3/4
OLIVE BRANCH   CLOUDY    63  63 100 SW17G28   29.87S
TUNICA         CLOUDY    63  61  94 S15       29.89S
CLARKSDALE     CLOUDY    63  63 100 S8        29.91S
CORINTH        CLOUDY    68  63  83 SW14G24   29.88S
GREENWOOD      CLOUDY    67  64  90 S12       29.92S
COLUMBUS       PTCLDY    64  64 100 S16       29.94F
STARKVILLE     CLOUDY    64  63  94 S7        29.95S
GOLDEN TRIANGL CLOUDY    64  63  94 S13       29.96R FOG


...SOUTHEAST MISSOURI...

CITY           SKY/WX    TMP DP  RH WIND       PRES   REMARKS
WEST PLAINS    LGT RAIN  33  30  88 N10       30.00S FOG     WCI  25
POPLAR BLUFF   RAIN      36  31  82 N17       29.99R WCI  26
CAPE GIRARDEAU MIX PCPN  35  33  92 N14       30.01S WCI  26


...NORTHWEST ALABAMA...

CITY           SKY/WX    TMP DP  RH WIND       PRES   REMARKS
MUSCLE SHOALS  CLOUDY    67  61  81 SW15      29.93S


...MIDDLE TENNESSEE...

CITY           SKY/WX    TMP DP  RH WIND       PRES   REMARKS
NASHVILLE      RAIN      51  50  96 N7        29.91R VSB 1
CLARKSVILLE    HVY RAIN  45  44  97 N10       29.92R FOG
COLUMBIA         N/A    N/A N/A N/A SW16      29.85S


...WESTERN KENTUCKY...

CITY           SKY/WX    TMP DP  RH WIND       PRES   REMARKS
PADUCAH        RAIN      38  35  89 NE17      29.97R FOG     WCI  28
FORT CAMPBELL  LGT RAIN  45  43  93 N9        29.92R


...CENTRAL ARKANSAS...

CITY           SKY/WX    TMP DP  RH WIND       PRES   REMARKS
LITTLE ROCK    LGT RAIN  52  49  89 NE6       29.90R VSB 1/2


SKY/WX REPORTED AS FAIR MEANS FEW OR NO CLOUDS BELOW
12 THOUSAND FEET.




USA.gov is the U.S. government's official web portal to all federal, state and local government web resources and services.